Time,TemperatureF,DewpointF,PressureIn,WindDirection,WindDirectionDegrees,WindSpeedMPH,WindSpeedGustMPH,Humidity,HourlyPrecipIn,Conditions,Clouds,dailyrainin,SoftwareType,DateUTC
2013-02-08 00:00:00,37.4,19.5,30.14,NW,305,0.0,0.0,48,0.00,,,0.00,LWC V2.11 B50,2013-02-08 07:00:00,
2013-02-08 00:05:00,37.6,20.2,30.14,NW,305,0.0,1.0,49,0.00,,,0.00,LWC V2.11 B50,2013-02-08 07:05:00,
2013-02-08 00:10:00,37.9,20.5,30.14,NW,305,0.0,0.0,49,0.00,,,0.00,LWC V2.11 B50,2013-02-08 07:10:00,
2013-02-08 00:15:00,38.3,20.8,30.14,NW,305,0.0,0.0,49,0.00,,,0.00,LWC V2.11 B50,2013-02-08 07:15:00,
2013-02-08 00:20:00,38.8,21.3,30.13,NW,305,0.0,0.0,49,0.00,,,0.00,LWC V2.11 B50,2013-02-08 07:20:00,
2013-02-08 00:25:00,39.1,21.1,30.13,NW,305,0.0,0.0,48,0.00,,,0.00,LWC V2.11 B50,2013-02-08 07:25:00,
2013-02-08 00:30:00,39.2,21.2,30.13,NW,305,0.0,0.0,48,0.00,,,0.00,LWC V2.11 B50,2013-02-08 07:30:00,
2013-02-08 00:35:00,39.3,21.3,30.13,NW,305,0.0,0.0,48,0.00,,,0.00,LWC V2.11 B50,2013-02-08 07:35:00,
2013-02-08 00:40:00,39.3,21.3,30.13,NW,304,0.0,0.0,48,0.00,,,0.00,LWC V2.11 B50,2013-02-08 07:40:00,
2013-02-08 00:45:00,39.3,21.3,30.13,NW,304,0.0,0.0,48,0.00,,,0.00,LWC V2.11 B50,2013-02-08 07:45:00,
2013-02-08 00:50:00,39.2,20.7,30.13,ESE,112,0.0,0.0,47,0.00,,,0.00,LWC V2.11 B50,2013-02-08 07:50:00,
2013-02-08 00:55:00,38.9,20.4,30.13,ESE,105,0.0,0.0,47,0.00,,,0.00,LWC V2.11 B50,2013-02-08 07:55:00,
2013-02-08 01:00:00,38.6,20.1,30.13,ESE,105,0.0,0.0,47,0.00,,,0.00,LWC V2.11 B50,2013-02-08 08:00:00,
2013-02-08 01:05:00,38.3,20.4,30.13,ESE,105,0.0,0.0,48,0.00,,,0.00,LWC V2.11 B50,2013-02-08 08:05:00,
2013-02-08 01:10:00,37.9,20.0,30.13,ESE,105,0.0,0.0,48,0.00,,,0.00,LWC V2.11 B50,2013-02-08 08:10:00,
2013-02-08 01:15:00,37.6,19.2,30.13,NNW,333,1.0,1.0,47,0.00,,,0.00,LWC V2.11 B50,2013-02-08 08:15:00,
2013-02-08 01:20:00,37.0,19.2,30.12,North,350,0.0,2.0,48,0.00,,,0.00,LWC V2.11 B50,2013-02-08 08:20:00,
2013-02-08 01:25:00,36.8,19.0,30.13,NW,315,0.0,1.0,48,0.00,,,0.00,LWC V2.11 B50,2013-02-08 08:25:00,
2013-02-08 01:30:00,37.0,19.6,30.13,NW,304,1.0,7.0,49,0.00,,,0.00,LWC V2.11 B50,2013-02-08 08:30:00,
2013-02-08 01:35:00,37.6,20.2,30.13,WNW,299,0.0,2.0,49,0.00,,,0.00,LWC V2.11 B50,2013-02-08 08:35:00,
2013-02-08 01:40:00,37.9,20.0,30.13,West,275,4.0,5.0,48,0.00,,,0.00,LWC V2.11 B50,2013-02-08 08:40:00,
2013-02-08 01:45:00,38.0,20.1,30.12,NNW,333,0.0,1.0,48,0.00,,,0.00,LWC V2.11 B50,2013-02-08 08:45:00,
2013-02-08 01:50:00,37.9,20.0,30.12,NW,323,1.0,3.0,48,0.00,,,0.00,LWC V2.11 B50,2013-02-08 08:50:00,
2013-02-08 01:55:00,37.9,20.5,30.12,NW,325,0.0,4.0,49,0.00,,,0.00,LWC V2.11 B50,2013-02-08 08:55:00,
2013-02-08 02:00:00,38.1,20.6,30.12,NNW,328,2.0,3.0,49,0.00,,,0.00,LWC V2.11 B50,2013-02-08 09:00:00,
2013-02-08 02:05:00,38.4,20.9,30.12,NW,315,0.0,5.0,49,0.00,,,0.00,LWC V2.11 B50,2013-02-08 09:05:00,
2013-02-08 02:10:00,38.6,20.6,30.12,NNW,338,2.0,2.0,48,0.00,,,0.00,LWC V2.11 B50,2013-02-08 09:10:00,
2013-02-08 02:15:00,38.6,21.1,30.12,WNW,302,0.0,0.0,49,0.00,,,0.00,LWC V2.11 B50,2013-02-08 09:15:00,
2013-02-08 02:20:00,38.5,20.5,30.12,WNW,302,0.0,0.0,48,0.00,,,0.00,LWC V2.11 B50,2013-02-08 09:20:00,
2013-02-08 02:25:00,38.2,20.7,30.12,NW,312,0.0,1.0,49,0.00,,,0.00,LWC V2.11 B50,2013-02-08 09:25:00,
2013-02-08 02:30:00,37.9,20.5,30.12,NNW,335,0.0,0.0,49,0.00,,,0.00,LWC V2.11 B50,2013-02-08 09:30:00,
2013-02-08 02:35:00,37.5,20.6,30.11,NNW,335,0.0,1.0,50,0.00,,,0.00,LWC V2.11 B50,2013-02-08 09:35:00,
2013-02-08 02:40:00,37.3,20.4,30.11,NNW,335,0.0,1.0,50,0.00,,,0.00,LWC V2.11 B50,2013-02-08 09:40:00,
2013-02-08 02:45:00,37.2,20.3,30.11,WNW,293,0.0,1.0,50,0.00,,,0.00,LWC V2.11 B50,2013-02-08 09:45:00,
2013-02-08 02:50:00,37.0,20.6,30.11,NW,313,0.0,3.0,51,0.00,,,0.00,LWC V2.11 B50,2013-02-08 09:50:00,
2013-02-08 02:55:00,37.2,20.3,30.11,NNW,327,3.0,3.0,50,0.00,,,0.00,LWC V2.11 B50,2013-02-08 09:55:00,
2013-02-08 03:00:00,37.3,20.4,30.11,NW,317,2.0,4.0,50,0.00,,,0.00,LWC V2.11 B50,2013-02-08 10:00:00,
2013-02-08 03:05:00,37.4,20.5,30.11,NW,313,1.0,3.0,50,0.00,,,0.00,LWC V2.11 B50,2013-02-08 10:05:00,
2013-02-08 03:10:00,37.4,20.5,30.11,NW,307,0.0,0.0,50,0.00,,,0.00,LWC V2.11 B50,2013-02-08 10:10:00,
2013-02-08 03:15:00,37.2,20.3,30.11,NW,307,0.0,1.0,50,0.00,,,0.00,LWC V2.11 B50,2013-02-08 10:15:00,
2013-02-08 03:20:00,36.8,19.9,30.12,WNW,289,1.0,2.0,50,0.00,,,0.00,LWC V2.11 B50,2013-02-08 10:20:00,
2013-02-08 03:25:00,36.2,19.4,30.11,WNW,289,0.0,0.0,50,0.00,,,0.00,LWC V2.11 B50,2013-02-08 10:25:00,
2013-02-08 03:30:00,35.9,20.0,30.11,NW,310,0.0,0.0,52,0.00,,,0.00,LWC V2.11 B50,2013-02-08 10:30:00,
2013-02-08 03:35:00,36.2,20.3,30.11,NW,316,0.0,4.0,52,0.00,,,0.00,LWC V2.11 B50,2013-02-08 10:35:00,
2013-02-08 03:40:00,36.3,19.9,30.11,NW,304,2.0,3.0,51,0.00,,,0.00,LWC V2.11 B50,2013-02-08 10:40:00,
2013-02-08 03:45:00,35.9,19.6,30.11,NW,306,0.0,0.0,51,0.00,,,0.00,LWC V2.11 B50,2013-02-08 10:45:00,
2013-02-08 03:50:00,35.0,18.7,30.11,West,268,0.0,2.0,51,0.00,,,0.00,LWC V2.11 B50,2013-02-08 10:50:00,
2013-02-08 03:55:00,34.1,18.3,30.11,West,273,1.0,2.0,52,0.00,,,0.00,LWC V2.11 B50,2013-02-08 10:55:00,
2013-02-08 04:00:00,33.8,18.9,30.11,NW,306,0.0,1.0,54,0.00,,,0.00,LWC V2.11 B50,2013-02-08 11:00:00,
2013-02-08 04:05:00,33.9,19.0,30.11,NW,312,0.0,1.0,54,0.00,,,0.00,LWC V2.11 B50,2013-02-08 11:05:00,
2013-02-08 04:10:00,34.1,19.2,30.11,NW,309,0.0,1.0,54,0.00,,,0.00,LWC V2.11 B50,2013-02-08 11:10:00,
2013-02-08 04:15:00,34.0,19.1,30.11,WNW,284,0.0,2.0,54,0.00,,,0.00,LWC V2.11 B50,2013-02-08 11:15:00,
2013-02-08 04:20:00,34.1,19.6,30.10,NW,318,2.0,5.0,55,0.00,,,0.00,LWC V2.11 B50,2013-02-08 11:20:00,
2013-02-08 04:25:00,34.6,19.7,30.10,WNW,297,0.0,2.0,54,0.00,,,0.00,LWC V2.11 B50,2013-02-08 11:25:00,
2013-02-08 04:30:00,34.6,19.2,30.10,West,273,1.0,2.0,53,0.00,,,0.00,LWC V2.11 B50,2013-02-08 11:30:00,
2013-02-08 04:35:00,34.6,19.2,30.10,WNW,294,1.0,3.0,53,0.00,,,0.00,LWC V2.11 B50,2013-02-08 11:35:00,
2013-02-08 04:40:00,34.7,19.3,30.10,NW,309,0.0,3.0,53,0.00,,,0.00,LWC V2.11 B50,2013-02-08 11:40:00,
2013-02-08 04:45:00,34.9,19.5,30.10,NW,320,2.0,2.0,53,0.00,,,0.00,LWC V2.11 B50,2013-02-08 11:45:00,
2013-02-08 04:50:00,35.1,19.7,30.10,NW,313,1.0,3.0,53,0.00,,,0.00,LWC V2.11 B50,2013-02-08 11:50:00,
2013-02-08 04:55:00,35.1,19.7,30.10,NW,311,0.0,4.0,53,0.00,,,0.00,LWC V2.11 B50,2013-02-08 11:55:00,
2013-02-08 05:00:00,35.2,19.8,30.10,NW,320,1.0,4.0,53,0.00,,,0.00,LWC V2.11 B50,2013-02-08 12:00:00,
2013-02-08 05:05:00,35.2,19.8,30.10,WNW,302,0.0,2.0,53,0.00,,,0.00,LWC V2.11 B50,2013-02-08 12:05:00,
2013-02-08 05:10:00,35.2,19.4,30.09,NW,316,0.0,2.0,52,0.00,,,0.00,LWC V2.11 B50,2013-02-08 12:10:00,
2013-02-08 05:15:00,35.2,19.8,30.10,NW,313,0.0,1.0,53,0.00,,,0.00,LWC V2.11 B50,2013-02-08 12:15:00,
2013-02-08 05:20:00,34.9,19.1,30.10,NW,313,1.0,1.0,52,0.00,,,0.00,LWC V2.11 B50,2013-02-08 12:20:00,
2013-02-08 05:25:00,34.3,19.0,30.10,WNW,289,0.0,0.0,53,0.00,,,0.00,LWC V2.11 B50,2013-02-08 12:25:00,
2013-02-08 05:30:00,33.9,19.0,30.10,WNW,294,0.0,0.0,54,0.00,,,0.00,LWC V2.11 B50,2013-02-08 12:30:00,
2013-02-08 05:35:00,33.5,18.7,30.10,WNW,294,0.0,1.0,54,0.00,,,0.00,LWC V2.11 B50,2013-02-08 12:35:00,
2013-02-08 05:40:00,33.5,19.1,30.10,NW,315,0.0,2.0,55,0.00,,,0.00,LWC V2.11 B50,2013-02-08 12:40:00,
2013-02-08 05:45:00,33.7,18.8,30.10,NW,307,0.0,1.0,54,0.00,,,0.00,LWC V2.11 B50,2013-02-08 12:45:00,
2013-02-08 05:50:00,33.7,19.3,30.10,NW,309,0.0,2.0,55,0.00,,,0.00,LWC V2.11 B50,2013-02-08 12:50:00,
2013-02-08 05:55:00,33.7,19.3,30.10,WNW,299,0.0,1.0,55,0.00,,,0.00,LWC V2.11 B50,2013-02-08 12:55:00,
2013-02-08 06:00:00,34.1,19.6,30.10,NW,312,0.0,2.0,55,0.00,,,0.00,LWC V2.11 B50,2013-02-08 13:00:00,
2013-02-08 06:05:00,34.3,19.4,30.10,WNW,294,1.0,1.0,54,0.00,,,0.00,LWC V2.11 B50,2013-02-08 13:05:00,
2013-02-08 06:10:00,34.2,19.3,30.10,NW,304,0.0,2.0,54,0.00,,,0.00,LWC V2.11 B50,2013-02-08 13:10:00,
2013-02-08 06:15:00,34.1,19.2,30.10,NW,309,0.0,2.0,54,0.00,,,0.00,LWC V2.11 B50,2013-02-08 13:15:00,
2013-02-08 06:20:00,34.2,19.3,30.10,NW,325,0.0,1.0,54,0.00,,,0.00,LWC V2.11 B50,2013-02-08 13:20:00,
2013-02-08 06:25:00,34.1,19.2,30.10,NW,307,0.0,1.0,54,0.00,,,0.00,LWC V2.11 B50,2013-02-08 13:25:00,
2013-02-08 06:30:00,33.8,19.4,30.09,NW,322,0.0,1.0,55,0.00,,,0.00,LWC V2.11 B50,2013-02-08 13:30:00,
2013-02-08 06:35:00,34.0,19.6,30.09,WNW,298,2.0,4.0,55,0.00,,,0.00,LWC V2.11 B50,2013-02-08 13:35:00,
2013-02-08 06:40:00,34.2,19.7,30.10,NW,310,0.0,1.0,55,0.00,,,0.00,LWC V2.11 B50,2013-02-08 13:40:00,
2013-02-08 06:45:00,34.1,19.2,30.09,NW,315,0.0,1.0,54,0.00,,,0.00,LWC V2.11 B50,2013-02-08 13:45:00,
2013-02-08 06:50:00,34.2,19.7,30.10,NW,306,0.0,2.0,55,0.00,,,0.00,LWC V2.11 B50,2013-02-08 13:50:00,
2013-02-08 06:55:00,34.0,19.1,30.10,NW,311,0.0,2.0,54,0.00,,,0.00,LWC V2.11 B50,2013-02-08 13:55:00,
2013-02-08 07:00:00,33.8,19.4,30.10,NW,310,1.0,2.0,55,0.00,,,0.00,LWC V2.11 B50,2013-02-08 14:00:00,
2013-02-08 07:05:00,33.8,19.4,30.09,NW,311,0.0,0.0,55,0.00,,,0.00,LWC V2.11 B50,2013-02-08 14:05:00,
2013-02-08 07:10:00,33.9,19.9,30.09,NW,304,0.0,4.0,56,0.00,,,0.00,LWC V2.11 B50,2013-02-08 14:10:00,
2013-02-08 07:15:00,34.2,19.7,30.09,NNW,345,0.0,0.0,55,0.00,,,0.00,LWC V2.11 B50,2013-02-08 14:15:00,
2013-02-08 07:20:00,34.4,19.5,30.10,NW,308,0.0,2.0,54,0.00,,,0.00,LWC V2.11 B50,2013-02-08 14:20:00,
2013-02-08 07:25:00,34.3,19.4,30.10,NW,313,2.0,2.0,54,0.00,,,0.00,LWC V2.11 B50,2013-02-08 14:25:00,
2013-02-08 07:30:00,34.2,19.7,30.09,NW,316,1.0,4.0,55,0.00,,,0.00,LWC V2.11 B50,2013-02-08 14:30:00,
2013-02-08 07:35:00,34.3,19.4,30.09,NW,304,0.0,2.0,54,0.00,,,0.00,LWC V2.11 B50,2013-02-08 14:35:00,
2013-02-08 07:40:00,34.2,19.3,30.10,NW,309,0.0,1.0,54,0.00,,,0.00,LWC V2.11 B50,2013-02-08 14:40:00,
2013-02-08 07:45:00,34.3,19.8,30.09,NW,309,0.0,3.0,55,0.00,,,0.00,LWC V2.11 B50,2013-02-08 14:45:00,
2013-02-08 07:50:00,34.8,20.3,30.10,NW,304,0.0,0.0,55,0.00,,,0.00,LWC V2.11 B50,2013-02-08 14:50:00,
2013-02-08 07:55:00,35.0,20.1,30.10,NW,304,1.0,1.0,54,0.00,,,0.00,LWC V2.11 B50,2013-02-08 14:55:00,
2013-02-08 08:00:00,35.1,20.1,30.10,NW,311,0.0,1.0,54,0.00,,,0.00,LWC V2.11 B50,2013-02-08 15:00:00,
2013-02-08 08:05:00,35.3,20.3,30.10,NNW,327,0.0,1.0,54,0.00,,,0.00,LWC V2.11 B50,2013-02-08 15:05:00,
2013-02-08 08:10:00,35.5,20.5,30.10,NW,315,0.0,1.0,54,0.00,,,0.00,LWC V2.11 B50,2013-02-08 15:10:00,
2013-02-08 08:15:00,35.8,20.4,30.10,WNW,285,3.0,3.0,53,0.00,,,0.00,LWC V2.11 B50,2013-02-08 15:15:00,
2013-02-08 08:20:00,36.1,20.6,30.10,NW,304,0.0,0.0,53,0.00,,,0.00,LWC V2.11 B50,2013-02-08 15:20:00,
2013-02-08 08:25:00,36.6,20.7,30.10,NW,317,0.0,1.0,52,0.00,,,0.00,LWC V2.11 B50,2013-02-08 15:25:00,
2013-02-08 08:30:00,37.0,21.0,30.10,NW,317,0.0,0.0,52,0.00,,,0.00,LWC V2.11 B50,2013-02-08 15:30:00,
2013-02-08 08:35:00,37.5,21.5,30.10,NW,317,0.0,0.0,52,0.00,,,0.00,LWC V2.11 B50,2013-02-08 15:35:00,
2013-02-08 08:40:00,38.1,21.6,30.09,North,355,0.0,1.0,51,0.00,,,0.00,LWC V2.11 B50,2013-02-08 15:40:00,
2013-02-08 08:45:00,38.8,21.8,30.09,NNE,26,0.0,1.0,50,0.00,,,0.00,LWC V2.11 B50,2013-02-08 15:45:00,
2013-02-08 08:50:00,39.5,21.9,30.09,NE,48,1.0,3.0,49,0.00,,,0.00,LWC V2.11 B50,2013-02-08 15:50:00,
2013-02-08 08:55:00,40.0,21.9,30.09,NE,42,0.0,4.0,48,0.00,,,0.00,LWC V2.11 B50,2013-02-08 15:55:00,
2013-02-08 09:00:00,40.5,21.9,30.08,ENE,74,0.0,2.0,47,0.00,,,0.00,LWC V2.11 B50,2013-02-08 16:00:00,
2013-02-08 09:02:00,40.6,22.0,30.08,East,80,0.0,0.0,47,0.00,,,0.00,LWC V2.11 B50,2013-02-08 16:02:00,
2013-02-08 09:07:00,41.0,21.8,30.08,NE,41,0.0,3.0,46,0.00,,,0.00,LWC V2.11 B50,2013-02-08 16:07:00,
2013-02-08 09:12:00,41.3,22.1,30.09,NE,41,0.0,0.0,46,0.00,,,0.00,LWC V2.11 B50,2013-02-08 16:12:00,
2013-02-08 09:17:00,41.7,21.9,30.08,NNE,29,0.0,0.0,45,0.00,,,0.00,LWC V2.11 B50,2013-02-08 16:17:00,
2013-02-08 09:22:00,42.3,22.5,30.08,NNE,29,1.0,1.0,45,0.00,,,0.00,LWC V2.11 B50,2013-02-08 16:22:00,
2013-02-08 09:27:00,43.0,22.6,30.08,NNE,32,0.0,0.0,44,0.00,,,0.00,LWC V2.11 B50,2013-02-08 16:27:00,
2013-02-08 09:32:00,43.8,22.8,30.07,ESE,106,0.0,1.0,43,0.00,,,0.00,LWC V2.11 B50,2013-02-08 16:32:00,
2013-02-08 09:37:00,44.3,22.7,30.07,ESE,120,0.0,1.0,42,0.00,,,0.00,LWC V2.11 B50,2013-02-08 16:37:00,
2013-02-08 09:42:00,44.9,22.6,30.07,ESE,113,2.0,4.0,41,0.00,,,0.00,LWC V2.11 B50,2013-02-08 16:42:00,
2013-02-08 09:47:00,45.4,22.5,30.07,East,101,0.0,2.0,40,0.00,,,0.00,LWC V2.11 B50,2013-02-08 16:47:00,
2013-02-08 09:52:00,45.7,22.8,30.07,NE,56,0.0,1.0,40,0.00,,,0.00,LWC V2.11 B50,2013-02-08 16:52:00,
2013-02-08 09:57:00,46.0,22.4,30.07,NNE,22,1.0,4.0,39,0.00,,,0.00,LWC V2.11 B50,2013-02-08 16:57:00,
2013-02-08 10:00:00,46.1,23.1,30.07,East,80,1.0,1.0,40,0.00,,,0.00,LWC V2.11 B50,2013-02-08 17:00:00,
2013-02-08 10:05:00,46.4,22.8,30.07,NNE,25,0.0,1.0,39,0.00,,,0.00,LWC V2.11 B50,2013-02-08 17:05:00,
2013-02-08 10:10:00,46.9,23.3,30.06,NE,53,0.0,3.0,39,0.00,,,0.00,LWC V2.11 B50,2013-02-08 17:10:00,
2013-02-08 10:15:00,47.2,22.9,30.07,ESE,103,2.0,3.0,38,0.00,,,0.00,LWC V2.11 B50,2013-02-08 17:15:00,
2013-02-08 10:20:00,47.6,23.3,30.06,SE,126,0.0,3.0,38,0.00,,,0.00,LWC V2.11 B50,2013-02-08 17:20:00,
2013-02-08 10:25:00,47.7,22.7,30.06,NE,50,0.0,0.0,37,0.00,,,0.00,LWC V2.11 B50,2013-02-08 17:25:00,
2013-02-08 10:30:00,47.8,22.8,30.06,SE,126,2.0,2.0,37,0.00,,,0.00,LWC V2.11 B50,2013-02-08 17:30:00,
2013-02-08 10:35:00,47.7,22.7,30.06,ESE,117,0.0,1.0,37,0.00,,,0.00,LWC V2.11 B50,2013-02-08 17:35:00,
2013-02-08 10:40:00,47.6,22.6,30.06,ESE,117,0.0,0.0,37,0.00,,,0.00,LWC V2.11 B50,2013-02-08 17:40:00,
2013-02-08 10:45:00,47.6,22.6,30.06,NE,38,0.0,3.0,37,0.00,,,0.00,LWC V2.11 B50,2013-02-08 17:45:00,
2013-02-08 10:50:00,47.7,22.7,30.05,NE,44,0.0,1.0,37,0.00,,,0.00,LWC V2.11 B50,2013-02-08 17:50:00,
2013-02-08 10:55:00,47.8,22.8,30.05,NNE,30,2.0,3.0,37,0.00,,,0.00,LWC V2.11 B50,2013-02-08 17:55:00,
2013-02-08 11:00:00,47.8,22.8,30.05,NE,35,0.0,0.0,37,0.00,,,0.00,LWC V2.11 B50,2013-02-08 18:00:00,
2013-02-08 11:02:00,47.8,22.8,30.05,NE,35,0.0,0.0,37,0.00,,,0.00,LWC V2.11 B50,2013-02-08 18:02:00,
2013-02-08 11:07:00,48.1,23.1,30.05,SE,128,0.0,2.0,37,0.00,,,0.00,LWC V2.11 B50,2013-02-08 18:07:00,
2013-02-08 11:12:00,48.3,23.3,30.04,ESE,122,1.0,1.0,37,0.00,,,0.00,LWC V2.11 B50,2013-02-08 18:12:00,
2013-02-08 11:17:00,48.5,23.4,30.04,East,100,2.0,2.0,37,0.00,,,0.00,LWC V2.11 B50,2013-02-08 18:17:00,
2013-02-08 11:22:00,48.6,22.9,30.04,ESE,107,0.0,2.0,36,0.00,,,0.00,LWC V2.11 B50,2013-02-08 18:22:00,
2013-02-08 11:27:00,48.8,23.0,30.03,SE,128,2.0,2.0,36,0.00,,,0.00,LWC V2.11 B50,2013-02-08 18:27:00,
2013-02-08 11:32:00,49.0,23.2,30.03,ESE,111,0.0,1.0,36,0.00,,,0.00,LWC V2.11 B50,2013-02-08 18:32:00,
2013-02-08 11:37:00,49.1,23.3,30.02,SSE,150,1.0,3.0,36,0.00,,,0.00,LWC V2.11 B50,2013-02-08 18:37:00,
2013-02-08 11:42:00,49.3,22.8,30.02,ESE,117,2.0,5.0,35,0.00,,,0.00,LWC V2.11 B50,2013-02-08 18:42:00,
2013-02-08 11:47:00,49.4,23.6,30.01,SSE,166,0.0,1.0,36,0.00,,,0.00,LWC V2.11 B50,2013-02-08 18:47:00,
2013-02-08 11:52:00,49.5,23.7,30.01,SSE,157,0.0,2.0,36,0.00,,,0.00,LWC V2.11 B50,2013-02-08 18:52:00,
2013-02-08 11:57:00,49.6,23.8,30.00,SSW,204,3.0,3.0,36,0.00,,,0.00,LWC V2.11 B50,2013-02-08 18:57:00,
2013-02-08 12:02:00,49.9,23.4,30.00,SSE,149,1.0,2.0,35,0.00,,,0.00,LWC V2.11 B50,2013-02-08 19:02:00,
2013-02-08 12:07:00,50.2,23.6,29.99,SE,134,0.0,1.0,35,0.00,,,0.00,LWC V2.11 B50,2013-02-08 19:07:00,
2013-02-08 12:12:00,50.5,23.2,29.99,ESE,114,0.0,4.0,34,0.00,,,0.00,LWC V2.11 B50,2013-02-08 19:12:00,
2013-02-08 12:17:00,50.8,23.5,29.98,SE,127,0.0,3.0,34,0.00,,,0.00,LWC V2.11 B50,2013-02-08 19:17:00,
2013-02-08 12:22:00,51.2,23.8,29.98,ESE,111,1.0,3.0,34,0.00,,,0.00,LWC V2.11 B50,2013-02-08 19:22:00,
2013-02-08 12:27:00,51.5,23.4,29.97,SE,127,0.0,3.0,33,0.00,,,0.00,LWC V2.11 B50,2013-02-08 19:27:00,
2013-02-08 12:32:00,52.0,23.8,29.96,SSE,159,4.0,4.0,33,0.00,,,0.00,LWC V2.11 B50,2013-02-08 19:32:00,
2013-02-08 12:37:00,52.3,24.1,29.96,SSE,153,1.0,3.0,33,0.00,,,0.00,LWC V2.11 B50,2013-02-08 19:37:00,
2013-02-08 12:42:00,52.6,24.3,29.95,South,172,1.0,3.0,33,0.00,,,0.00,LWC V2.11 B50,2013-02-08 19:42:00,
2013-02-08 12:47:00,52.9,23.9,29.95,SE,128,4.0,4.0,32,0.00,,,0.00,LWC V2.11 B50,2013-02-08 19:47:00,
2013-02-08 12:52:00,53.3,24.2,29.94,SE,135,4.0,4.0,32,0.00,,,0.00,LWC V2.11 B50,2013-02-08 19:52:00,
2013-02-08 12:57:00,53.7,24.6,29.93,SE,140,6.0,6.0,32,0.00,,,0.00,LWC V2.11 B50,2013-02-08 19:57:00,
2013-02-08 13:02:00,54.1,24.9,29.93,SSW,194,4.0,5.0,32,0.00,,,0.00,LWC V2.11 B50,2013-02-08 20:02:00,
2013-02-08 13:07:00,54.2,24.2,29.93,SSE,148,1.0,6.0,31,0.00,,,0.00,LWC V2.11 B50,2013-02-08 20:07:00,
2013-02-08 13:12:00,54.4,24.4,29.92,SSW,209,0.0,3.0,31,0.00,,,0.00,LWC V2.11 B50,2013-02-08 20:12:00,
2013-02-08 13:17:00,55.1,24.2,29.92,ESE,113,4.0,6.0,30,0.00,,,0.00,LWC V2.11 B50,2013-02-08 20:17:00,
2013-02-08 13:22:00,56.5,24.6,29.91,SSW,196,10.0,12.0,29,0.00,,,0.00,LWC V2.11 B50,2013-02-08 20:22:00,
2013-02-08 13:27:00,57.4,24.6,29.91,South,179,8.0,10.0,28,0.00,,,0.00,LWC V2.11 B50,2013-02-08 20:27:00,
2013-02-08 13:32:00,57.7,24.8,29.91,South,184,5.0,9.0,28,0.00,,,0.00,LWC V2.11 B50,2013-02-08 20:32:00,
2013-02-08 13:37:00,57.8,24.0,29.90,SSW,211,10.0,14.0,27,0.00,,,0.00,LWC V2.11 B50,2013-02-08 20:37:00,
2013-02-08 13:42:00,58.0,24.2,29.90,SSW,198,3.0,9.0,27,0.00,,,0.00,LWC V2.11 B50,2013-02-08 20:42:00,
2013-02-08 13:47:00,58.2,24.4,29.90,SSE,163,11.0,12.0,27,0.00,,,0.00,LWC V2.11 B50,2013-02-08 20:47:00,
2013-02-08 13:52:00,57.9,24.1,29.89,SSE,164,8.0,11.0,27,0.00,,,0.00,LWC V2.11 B50,2013-02-08 20:52:00,
2013-02-08 13:57:00,57.8,24.9,29.89,South,175,3.0,16.0,28,0.00,,,0.00,LWC V2.11 B50,2013-02-08 20:57:00,
2013-02-08 14:02:00,58.1,25.2,29.88,SSE,154,5.0,10.0,28,0.00,,,0.00,LWC V2.11 B50,2013-02-08 21:02:00,
2013-02-08 14:07:00,58.1,25.2,29.88,SSE,159,7.0,8.0,28,0.00,,,0.00,LWC V2.11 B50,2013-02-08 21:07:00,
2013-02-08 14:12:00,58.3,24.5,29.87,SE,142,10.0,15.0,27,0.00,,,0.00,LWC V2.11 B50,2013-02-08 21:12:00,
2013-02-08 14:17:00,58.4,24.6,29.88,SSE,161,2.0,14.0,27,0.00,,,0.00,LWC V2.11 B50,2013-02-08 21:17:00,
2013-02-08 14:22:00,58.6,24.7,29.87,South,176,6.0,10.0,27,0.00,,,0.00,LWC V2.11 B50,2013-02-08 21:22:00,
2013-02-08 14:27:00,58.3,24.5,29.87,SSW,196,3.0,8.0,27,0.00,,,0.00,LWC V2.11 B50,2013-02-08 21:27:00,
2013-02-08 14:32:00,58.2,24.4,29.87,WSW,248,8.0,9.0,27,0.00,,,0.00,LWC V2.11 B50,2013-02-08 21:32:00,
2013-02-08 14:37:00,58.2,24.4,29.87,South,175,11.0,12.0,27,0.00,,,0.00,LWC V2.11 B50,2013-02-08 21:37:00,
2013-02-08 14:42:00,58.2,24.4,29.87,South,180,10.0,17.0,27,0.00,,,0.00,LWC V2.11 B50,2013-02-08 21:42:00,
2013-02-08 14:47:00,57.8,24.0,29.86,SW,233,3.0,13.0,27,0.00,,,0.00,LWC V2.11 B50,2013-02-08 21:47:00,
2013-02-08 14:52:00,57.5,23.8,29.86,SSE,167,4.0,7.0,27,0.00,,,0.00,LWC V2.11 B50,2013-02-08 21:52:00,
2013-02-08 14:57:00,57.4,23.7,29.86,SE,146,5.0,14.0,27,0.00,,,0.00,LWC V2.11 B50,2013-02-08 21:57:00,
2013-02-08 15:02:00,57.3,24.5,29.86,South,172,6.0,9.0,28,0.00,,,0.00,LWC V2.11 B50,2013-02-08 22:02:00,
2013-02-08 15:07:00,57.2,23.5,29.85,SE,136,7.0,11.0,27,0.00,,,0.00,LWC V2.11 B50,2013-02-08 22:07:00,
2013-02-08 15:12:00,57.3,23.6,29.85,SSE,165,14.0,14.0,27,0.00,,,0.00,LWC V2.11 B50,2013-02-08 22:12:00,
2013-02-08 15:17:00,57.2,23.5,29.85,SSE,164,9.0,15.0,27,0.00,,,0.00,LWC V2.11 B50,2013-02-08 22:17:00,
2013-02-08 15:22:00,57.2,24.4,29.85,SW,220,1.0,8.0,28,0.00,,,0.00,LWC V2.11 B50,2013-02-08 22:22:00,
2013-02-08 15:27:00,57.2,24.4,29.84,SSW,211,5.0,12.0,28,0.00,,,0.00,LWC V2.11 B50,2013-02-08 22:27:00,
2013-02-08 15:32:00,56.9,24.1,29.84,South,176,11.0,12.0,28,0.00,,,0.00,LWC V2.11 B50,2013-02-08 22:32:00,
2013-02-08 15:37:00,56.9,24.1,29.84,SSE,154,9.0,15.0,28,0.00,,,0.00,LWC V2.11 B50,2013-02-08 22:37:00,
2013-02-08 15:42:00,56.9,24.1,29.84,SE,141,4.0,14.0,28,0.00,,,0.00,LWC V2.11 B50,2013-02-08 22:42:00,
2013-02-08 15:47:00,56.8,24.9,29.83,SE,129,4.0,17.0,29,0.00,,,0.00,LWC V2.11 B50,2013-02-08 22:47:00,
2013-02-08 15:52:00,56.8,24.9,29.83,SE,138,10.0,12.0,29,0.00,,,0.00,LWC V2.11 B50,2013-02-08 22:52:00,
2013-02-08 15:57:00,56.9,25.0,29.82,SSW,204,13.0,17.0,29,0.00,,,0.00,LWC V2.11 B50,2013-02-08 22:57:00,
2013-02-08 16:02:00,56.8,24.9,29.83,SSE,163,9.0,14.0,29,0.00,,,0.00,LWC V2.11 B50,2013-02-08 23:02:00,
2013-02-08 16:07:00,56.8,24.9,29.82,SSE,161,11.0,11.0,29,0.00,,,0.00,LWC V2.11 B50,2013-02-08 23:07:00,
2013-02-08 16:12:00,56.8,24.9,29.82,South,179,3.0,7.0,29,0.00,,,0.00,LWC V2.11 B50,2013-02-08 23:12:00,
2013-02-08 16:17:00,56.8,24.1,29.82,SSW,211,5.0,11.0,28,0.00,,,0.00,LWC V2.11 B50,2013-02-08 23:17:00,
2013-02-08 16:22:00,56.8,24.1,29.81,South,185,3.0,12.0,28,0.00,,,0.00,LWC V2.11 B50,2013-02-08 23:22:00,
2013-02-08 16:27:00,56.8,24.1,29.81,SSW,197,6.0,13.0,28,0.00,,,0.00,LWC V2.11 B50,2013-02-08 23:27:00,
2013-02-08 16:32:00,56.8,24.1,29.81,SW,214,5.0,12.0,28,0.00,,,0.00,LWC V2.11 B50,2013-02-08 23:32:00,
2013-02-08 16:37:00,56.8,24.1,29.81,South,182,5.0,8.0,28,0.00,,,0.00,LWC V2.11 B50,2013-02-08 23:37:00,
2013-02-08 16:42:00,56.7,24.0,29.81,SSW,202,4.0,10.0,28,0.00,,,0.00,LWC V2.11 B50,2013-02-08 23:42:00,
2013-02-08 16:47:00,56.6,23.9,29.81,SE,134,3.0,7.0,28,0.00,,,0.00,LWC V2.11 B50,2013-02-08 23:47:00,
2013-02-08 16:52:00,56.5,23.8,29.81,SSE,152,6.0,10.0,28,0.00,,,0.00,LWC V2.11 B50,2013-02-08 23:52:00,
2013-02-08 16:57:00,56.4,23.7,29.81,SSE,155,3.0,9.0,28,0.00,,,0.00,LWC V2.11 B50,2013-02-08 23:57:00,
2013-02-08 17:02:00,56.4,23.7,29.81,South,169,4.0,11.0,28,0.00,,,0.00,LWC V2.11 B50,2013-02-09 00:02:00,
2013-02-08 17:07:00,56.3,23.6,29.81,South,184,8.0,9.0,28,0.00,,,0.00,LWC V2.11 B50,2013-02-09 00:07:00,
2013-02-08 17:12:00,56.2,23.5,29.81,SE,125,7.0,13.0,28,0.00,,,0.00,LWC V2.11 B50,2013-02-09 00:12:00,
2013-02-08 17:17:00,56.2,23.5,29.81,WSW,238,4.0,7.0,28,0.00,,,0.00,LWC V2.11 B50,2013-02-09 00:17:00,
2013-02-08 17:22:00,56.0,23.4,29.81,SSE,154,7.0,9.0,28,0.00,,,0.00,LWC V2.11 B50,2013-02-09 00:22:00,
2013-02-08 17:27:00,55.9,23.3,29.81,South,170,6.0,11.0,28,0.00,,,0.00,LWC V2.11 B50,2013-02-09 00:27:00,
2013-02-08 17:32:00,55.8,23.2,29.81,SSW,194,2.0,7.0,28,0.00,,,0.00,LWC V2.11 B50,2013-02-09 00:32:00,
2013-02-08 17:37:00,55.7,23.1,29.81,SW,228,5.0,7.0,28,0.00,,,0.00,LWC V2.11 B50,2013-02-09 00:37:00,
2013-02-08 17:42:00,55.7,23.1,29.81,SW,222,8.0,8.0,28,0.00,,,0.00,LWC V2.11 B50,2013-02-09 00:42:00,
2013-02-08 17:47:00,55.7,23.1,29.81,South,175,6.0,7.0,28,0.00,,,0.00,LWC V2.11 B50,2013-02-09 00:47:00,
2013-02-08 17:52:00,55.6,23.0,29.81,ESE,119,4.0,9.0,28,0.00,,,0.00,LWC V2.11 B50,2013-02-09 00:52:00,
2013-02-08 17:57:00,55.5,22.9,29.81,South,173,6.0,12.0,28,0.00,,,0.00,LWC V2.11 B50,2013-02-09 00:57:00,
2013-02-08 18:02:00,55.4,22.8,29.81,South,188,4.0,9.0,28,0.00,,,0.00,LWC V2.11 B50,2013-02-09 01:02:00,
2013-02-08 18:07:00,55.3,22.8,29.81,South,184,3.0,7.0,28,0.00,,,0.00,LWC V2.11 B50,2013-02-09 01:07:00,
2013-02-08 18:12:00,55.2,22.7,29.81,SSW,205,3.0,9.0,28,0.00,,,0.00,LWC V2.11 B50,2013-02-09 01:12:00,
2013-02-08 18:17:00,55.1,22.6,29.81,South,187,2.0,9.0,28,0.00,,,0.00,LWC V2.11 B50,2013-02-09 01:17:00,
2013-02-08 18:22:00,55.0,22.5,29.81,SSE,159,4.0,10.0,28,0.00,,,0.00,LWC V2.11 B50,2013-02-09 01:22:00,
2013-02-08 18:27:00,54.9,22.4,29.81,SSW,207,1.0,5.0,28,0.00,,,0.00,LWC V2.11 B50,2013-02-09 01:27:00,
2013-02-08 18:32:00,54.7,22.2,29.81,SE,126,3.0,6.0,28,0.00,,,0.00,LWC V2.11 B50,2013-02-09 01:32:00,
2013-02-08 18:37:00,54.6,22.2,29.81,SW,215,3.0,7.0,28,0.00,,,0.00,LWC V2.11 B50,2013-02-09 01:37:00,
2013-02-08 18:42:00,54.4,22.8,29.82,SSE,161,4.0,10.0,29,0.00,,,0.00,LWC V2.11 B50,2013-02-09 01:42:00,
2013-02-08 18:47:00,54.3,22.7,29.82,SSE,163,6.0,8.0,29,0.00,,,0.00,LWC V2.11 B50,2013-02-09 01:47:00,
2013-02-08 18:52:00,54.1,22.6,29.82,SSW,194,4.0,5.0,29,0.00,,,0.00,LWC V2.11 B50,2013-02-09 01:52:00,
2013-02-08 18:57:00,53.9,23.2,29.82,South,191,1.0,6.0,30,0.00,,,0.00,LWC V2.11 B50,2013-02-09 01:57:00,
2013-02-08 19:02:00,53.8,23.1,29.82,SSW,207,4.0,6.0,30,0.00,,,0.00,LWC V2.11 B50,2013-02-09 02:02:00,
2013-02-08 19:07:00,53.6,22.9,29.82,South,178,5.0,5.0,30,0.00,,,0.00,LWC V2.11 B50,2013-02-09 02:07:00,
2013-02-08 19:12:00,53.5,22.8,29.82,SW,215,4.0,8.0,30,0.00,,,0.00,LWC V2.11 B50,2013-02-09 02:12:00,
2013-02-08 19:17:00,53.4,22.8,29.83,SSW,206,3.0,6.0,30,0.00,,,0.00,LWC V2.11 B50,2013-02-09 02:17:00,
2013-02-08 19:22:00,53.3,23.4,29.83,SSW,197,1.0,4.0,31,0.00,,,0.00,LWC V2.11 B50,2013-02-09 02:22:00,
2013-02-08 19:27:00,53.2,23.4,29.83,SE,140,1.0,4.0,31,0.00,,,0.00,LWC V2.11 B50,2013-02-09 02:27:00,
2013-02-08 19:32:00,52.9,23.1,29.83,SW,214,2.0,3.0,31,0.00,,,0.00,LWC V2.11 B50,2013-02-09 02:32:00,
2013-02-08 19:37:00,52.7,22.9,29.83,South,180,0.0,3.0,31,0.00,,,0.00,LWC V2.11 B50,2013-02-09 02:37:00,
2013-02-08 19:42:00,52.4,22.7,29.83,SSW,200,0.0,1.0,31,0.00,,,0.00,LWC V2.11 B50,2013-02-09 02:42:00,
2013-02-08 19:47:00,52.1,22.4,29.83,SSW,200,0.0,0.0,31,0.00,,,0.00,LWC V2.11 B50,2013-02-09 02:47:00,
2013-02-08 19:52:00,51.7,22.8,29.83,SSW,200,0.0,0.0,32,0.00,,,0.00,LWC V2.11 B50,2013-02-09 02:52:00,
2013-02-08 19:57:00,51.3,22.5,29.83,SSW,202,0.0,0.0,32,0.00,,,0.00,LWC V2.11 B50,2013-02-09 02:57:00,
2013-02-08 20:02:00,51.0,22.2,29.83,SW,227,0.0,2.0,32,0.00,,,0.00,LWC V2.11 B50,2013-02-09 03:02:00,
2013-02-08 20:07:00,50.5,21.8,29.83,SW,227,0.0,0.0,32,0.00,,,0.00,LWC V2.11 B50,2013-02-09 03:07:00,
2013-02-08 20:12:00,50.0,22.0,29.82,SSW,209,2.0,2.0,33,0.00,,,0.00,LWC V2.11 B50,2013-02-09 03:12:00,
2013-02-08 20:17:00,49.8,21.9,29.82,SSW,211,0.0,3.0,33,0.00,,,0.00,LWC V2.11 B50,2013-02-09 03:17:00,
2013-02-08 20:22:00,49.8,21.9,29.82,SSW,202,0.0,1.0,33,0.00,,,0.00,LWC V2.11 B50,2013-02-09 03:22:00,
2013-02-08 20:27:00,49.8,21.1,29.82,SSW,211,2.0,3.0,32,0.00,,,0.00,LWC V2.11 B50,2013-02-09 03:27:00,
2013-02-08 20:32:00,49.9,21.2,29.82,SSW,205,0.0,2.0,32,0.00,,,0.00,LWC V2.11 B50,2013-02-09 03:32:00,
2013-02-08 20:37:00,49.9,20.5,29.82,SSW,206,0.0,2.0,31,0.00,,,0.00,LWC V2.11 B50,2013-02-09 03:37:00,
2013-02-08 20:42:00,49.9,20.5,29.82,SSW,210,0.0,3.0,31,0.00,,,0.00,LWC V2.11 B50,2013-02-09 03:42:00,
2013-02-08 20:47:00,49.8,20.4,29.81,WSW,240,1.0,1.0,31,0.00,,,0.00,LWC V2.11 B50,2013-02-09 03:47:00,
2013-02-08 20:52:00,49.8,20.4,29.81,SW,219,0.0,1.0,31,0.00,,,0.00,LWC V2.11 B50,2013-02-09 03:52:00,
2013-02-08 20:57:00,49.6,20.2,29.81,SW,214,0.0,2.0,31,0.00,,,0.00,LWC V2.11 B50,2013-02-09 03:57:00,
2013-02-08 21:02:00,49.4,20.0,29.81,SSW,213,0.0,1.0,31,0.00,,,0.00,LWC V2.11 B50,2013-02-09 04:02:00,
2013-02-08 21:07:00,49.2,20.6,29.81,SW,215,0.0,1.0,32,0.00,,,0.00,LWC V2.11 B50,2013-02-09 04:07:00,
2013-02-08 21:12:00,48.9,20.4,29.81,SSW,211,0.0,1.0,32,0.00,,,0.00,LWC V2.11 B50,2013-02-09 04:12:00,
2013-02-08 21:17:00,48.7,20.2,29.80,SSW,211,0.0,0.0,32,0.00,,,0.00,LWC V2.11 B50,2013-02-09 04:17:00,
2013-02-08 21:22:00,48.3,19.8,29.80,SSW,211,0.0,0.0,32,0.00,,,0.00,LWC V2.11 B50,2013-02-09 04:22:00,
2013-02-08 21:27:00,47.9,19.5,29.80,SSW,211,0.0,0.0,32,0.00,,,0.00,LWC V2.11 B50,2013-02-09 04:27:00,
2013-02-08 21:32:00,47.7,20.0,29.80,SSW,211,0.0,0.0,33,0.00,,,0.00,LWC V2.11 B50,2013-02-09 04:32:00,
2013-02-08 21:37:00,47.3,19.7,29.80,SSW,211,0.0,0.0,33,0.00,,,0.00,LWC V2.11 B50,2013-02-09 04:37:00,
2013-02-08 21:42:00,46.8,19.2,29.79,SSW,211,0.0,0.0,33,0.00,,,0.00,LWC V2.11 B50,2013-02-09 04:42:00,
2013-02-08 21:47:00,46.3,18.8,29.79,SSW,211,0.0,1.0,33,0.00,,,0.00,LWC V2.11 B50,2013-02-09 04:47:00,
2013-02-08 21:52:00,46.1,19.3,29.79,SSW,211,0.0,0.0,34,0.00,,,0.00,LWC V2.11 B50,2013-02-09 04:52:00,
2013-02-08 21:57:00,45.8,19.0,29.79,SSW,211,0.0,0.0,34,0.00,,,0.00,LWC V2.11 B50,2013-02-09 04:57:00,
2013-02-08 22:00:00,45.7,19.0,29.79,SSW,211,0.0,0.0,34,0.00,,,0.00,LWC V2.11 B50,2013-02-09 05:00:00,
2013-02-08 22:05:00,45.4,18.7,29.79,SSW,211,0.0,0.0,34,0.00,,,0.00,LWC V2.11 B50,2013-02-09 05:05:00,
2013-02-08 22:10:00,45.1,19.1,29.79,SSW,211,0.0,0.0,35,0.00,,,0.00,LWC V2.11 B50,2013-02-09 05:10:00,
2013-02-08 22:15:00,44.9,19.6,29.79,SSW,211,0.0,1.0,36,0.00,,,0.00,LWC V2.11 B50,2013-02-09 05:15:00,
2013-02-08 22:20:00,45.3,19.9,29.79,WSW,244,2.0,2.0,36,0.00,,,0.00,LWC V2.11 B50,2013-02-09 05:20:00,
2013-02-08 22:25:00,46.0,19.9,29.79,SSW,209,0.0,1.0,35,0.00,,,0.00,LWC V2.11 B50,2013-02-09 05:25:00,
2013-02-08 22:30:00,46.4,20.3,29.79,SSW,209,0.0,1.0,35,0.00,,,0.00,LWC V2.11 B50,2013-02-09 05:30:00,
2013-02-08 22:35:00,46.7,20.5,29.79,South,190,0.0,0.0,35,0.00,,,0.00,LWC V2.11 B50,2013-02-09 05:35:00,
2013-02-08 22:40:00,46.9,20.7,29.78,SSW,202,1.0,3.0,35,0.00,,,0.00,LWC V2.11 B50,2013-02-09 05:40:00,
2013-02-08 22:45:00,47.2,21.0,29.78,SW,225,1.0,2.0,35,0.00,,,0.00,LWC V2.11 B50,2013-02-09 05:45:00,
2013-02-08 22:50:00,47.4,20.5,29.78,SSW,198,0.0,4.0,34,0.00,,,0.00,LWC V2.11 B50,2013-02-09 05:50:00,
2013-02-08 22:55:00,47.6,20.6,29.78,WNW,288,0.0,5.0,34,0.00,,,0.00,LWC V2.11 B50,2013-02-09 05:55:00,
2013-02-08 23:00:00,47.7,20.0,29.78,SSW,208,1.0,5.0,33,0.00,,,0.00,LWC V2.11 B50,2013-02-09 06:00:00,
2013-02-08 23:05:00,47.8,20.1,29.77,SSW,212,0.0,3.0,33,0.00,,,0.00,LWC V2.11 B50,2013-02-09 06:05:00,
2013-02-08 23:10:00,47.9,20.2,29.77,SW,214,3.0,4.0,33,0.00,,,0.00,LWC V2.11 B50,2013-02-09 06:10:00,
2013-02-08 23:15:00,47.9,20.2,29.77,SSW,196,3.0,5.0,33,0.00,,,0.00,LWC V2.11 B50,2013-02-09 06:15:00,
2013-02-08 23:20:00,47.9,20.2,29.77,South,190,1.0,2.0,33,0.00,,,0.00,LWC V2.11 B50,2013-02-09 06:20:00,
2013-02-08 23:25:00,47.9,20.2,29.76,SSW,207,2.0,3.0,33,0.00,,,0.00,LWC V2.11 B50,2013-02-09 06:25:00,
2013-02-08 23:30:00,47.9,20.9,29.76,SSW,204,0.0,3.0,34,0.00,,,0.00,LWC V2.11 B50,2013-02-09 06:30:00,
2013-02-08 23:35:00,47.8,20.8,29.76,SSW,196,0.0,4.0,34,0.00,,,0.00,LWC V2.11 B50,2013-02-09 06:35:00,
2013-02-08 23:40:00,47.7,20.7,29.75,SSW,205,0.0,1.0,34,0.00,,,0.00,LWC V2.11 B50,2013-02-09 06:40:00,
2013-02-08 23:45:00,47.5,20.5,29.75,SSW,198,5.0,5.0,34,0.00,,,0.00,LWC V2.11 B50,2013-02-09 06:45:00,
2013-02-08 23:50:00,47.4,21.1,29.75,SSW,210,2.0,7.0,35,0.00,,,0.00,LWC V2.11 B50,2013-02-09 06:50:00,
2013-02-08 23:55:00,47.2,21.0,29.75,SSW,207,2.0,4.0,35,0.00,,,0.00,LWC V2.11 B50,2013-02-09 06:55:00,